Regional Weather Roundup
Issued by NWS

Home | Current Version | Previous Version | Text Only | Print | Product List | Glossary Off
Versions: 1 2 3 4 5 6 7 8 9 10 11 12 13 14 15 16 17 18 19 20 21 22 23 24 25 26 27 28 29 30 31 32 33 34 35 36 37 38 39 40 41 42 43 44 45 46 47 48 49 50

000
ASUS43 KMKX 201411
RWRWI

WISCONSIN REGIONAL WEATHER ROUNDUP
NATIONAL WEATHER SERVICE MILWAUKEE/SULLIVAN WI
900 AM CDT SUN AUG 20 2017

NOTE: "FAIR" INDICATES FEW OR NO CLOUDS BELOW 12,000 FEET WITH NO
SIGNIFICANT WEATHER AND/OR OBSTRUCTIONS TO VISIBILITY.

WIZ001-002-006>008-014>016-023>028-201500-
NORTHWEST WISCONSIN

CITY           SKY/WX    TMP DP  RH WIND       PRES   REMARKS
SUPERIOR ARPT    N/A     66  64  93 SW5       29.84F
ASHLAND        SUNNY     70  63  78 S7        29.88F
HAYWARD        PTSUNNY   69  63  81 S7        29.91F
SIREN          PTSUNNY   70  63  80 SW8       29.89F
CUMBERLAND     CLOUDY    66  63  88 S10       29.93R
RICE LAKE      CLOUDY    65  63  91 SE6       29.94R
CHETEK         CLOUDY    65  63  93 SE7       29.92F
LADYSMITH      CLOUDY    67  63  87 S9        29.95F
EAU CLAIRE     CLOUDY    68  62  81 S9        29.93R
MENOMONIE      CLOUDY    66  64  91 SE6       29.93R
NEW RICHMOND   CLOUDY    69  63  80 S7        29.91R
OSCEOLA        CLOUDY    70  69  97 S5        29.93S
$$

WIZ003>005-009-010-017-018-201500-
NORTH CENTRAL WISCONSIN

CITY           SKY/WX    TMP DP  RH WIND       PRES   REMARKS
MANITOWISH WTR SUNNY     67  66  99 S8        29.96S
ARBOR VITAE    CLOUDY    67  62  83 SW8       29.97S
WOODRUFF       CLOUDY    67  62  83 SW8       29.97S
RHINELANDER    CLOUDY    67  62  84 SW9       29.99F
EAGLE RIVER    CLOUDY    67  62  85 SW8       29.97F
LAND O LAKES   SUNNY     65  61  85 SW5       29.98F
PHILLIPS       SUNNY     65  63  92 SW7       29.96S
TOMAHAWK         N/A     64  61  90 S3        29.99S
MEDFORD        CLOUDY    66  62  87 S6        29.97F
MERRILL        CLOUDY    64  63  94 CALM      29.99S
$$

WIZ029-030-035-036-043>047-201500-
CENTRAL WISCONSIN

CITY           SKY/WX    TMP DP  RH WIND       PRES   REMARKS
WAUSAU         CLOUDY    65  61  87 S6        29.98S
MOSINEE        PTSUNNY   64  64 100 S5        30.00S
MARSHFIELD     CLOUDY    65  60  84 S8        29.98R
STEVENS POINT  CLOUDY    66  61  83 S8        30.01R
WAUPACA        CLOUDY    68  65  89 S6        30.01R
WAUTOMA        CLOUDY    65  62  90 CALM      30.02R
WISC RAPIDS    CLOUDY    67  62  84 S5        30.01R
CAMP DOUGLAS   CLOUDY    66  63  88 S6        29.99R
$$

WIZ011>013-019>022-031-037>040-048>050-201500-
NORTHEAST WISCONSIN

CITY           SKY/WX    TMP DP  RH WIND       PRES   REMARKS
ANTIGO         CLOUDY    67  62  86 SW7       30.01S
SHAWANO        CLOUDY    68  62  82 CALM      29.99S
OCONTO         CLOUDY    69  62  79 SW5       29.99S
STURGEON BAY   CLOUDY    72  63  73 SW7       30.01S
GREEN BAY      CLOUDY    69  68  96 S5        30.00S
MANITOWOC      CLOUDY    73  63  70 SW3       30.02S
APPLETON       PTSUNNY   70  61  73 VRB5      29.99F
CLINTONVILLE   CLOUDY    66  61  82 SW3       30.00S
OSHKOSH        CLOUDY    70  63  78 S9        30.00S
$$

WIZ032>034-041-042-053>061-201500-
SOUTHWEST WISCONSIN

CITY           SKY/WX    TMP DP  RH WIND       PRES   REMARKS
LA CROSSE      CLOUDY    71  64  78 S8        29.96R
SPARTA         CLOUDY    66  62  89 CALM      29.98S
VIROQUA        CLOUDY    67  63  85 CALM      30.01R
BOSCOBEL       CLOUDY    66  63  90 CALM      30.00R
PRAIRIE DU CHI CLOUDY    67  62  83 CALM      30.00R
PLATTEVILLE    CLOUDY    67  66  96 S3        30.03R
$$

WIZ056-057-062-063-064-067-068-201500-
SOUTH CENTRAL WISCONSIN

CITY           SKY/WX    TMP DP  RH WIND       PRES   REMARKS
REEDSBURG      MOSUNNY   69  63  83 S7        30.01R
BARABOO/DELLS  MOSUNNY   70  61  72 S8        30.02R
LONE ROCK      CLOUDY    67  64  90 E5        30.00R
MINERAL POINT  PTSUNNY   68  64  88 S8        30.03R
MADISON        CLOUDY    70  61  73 S7        30.02R
MIDDLETON      CLOUDY    72  62  70 S9        30.03R
WATERTOWN      MOSUNNY   70  65  85 S6        30.03R
MONROE         CLOUDY    68  61  77 S7        30.03S
JANESVILLE     CLOUDY    70  63  78 SE8       30.02R
$$

WIZ051-052-058>065-066-070>072-201500-
SOUTHEAST WISCONSIN

CITY           SKY/WX    TMP DP  RH WIND       PRES   REMARKS
MILWAUKEE      CLOUDY    74  62  66 S9        30.03R
WAUKESHA       SUNNY     70  61  73 S7        30.04R
MILWAUKEE/TIMM SUNNY     72  59  64 S5        30.03S
RACINE         CLOUDY    73  62  68 S7        30.06R
KENOSHA        CLOUDY    72  62  71 S7        30.05R
FOND DU LAC    MOSUNNY   70  62  76 S7        30.01S
SHEBOYGAN      CLOUDY    72  65  78 S7        30.02S
WEST BEND      CLOUDY    70  63  78 SW6       30.04R
JUNEAU         CLOUDY    68  62  82 S6        30.04R
$$

LSZ147-162-201500-
LAKE SUPERIOR

STATION/POSITION TIME  TEMP    WIND        PRES    WAVE
                       AIR SEA DIR/SP/G            HT/PER
                 (UTC) (F)     (DEG/KT/KT) (MB)    (FT/S)
W MID LAKE BUOY  1350   63 60  200/ 12/ 14 1010.7F   1/ 3
DEVILS ISLAND    1400   68     180/  7/  8 1010.5F
SAXON HARBOR     1340   70     180/  6/ 11 1011.5F
$$

LMZ867-665-643>646-201500-
LAKE MICHIGAN

STATION/POSITION TIME  TEMP    WIND        PRES    WAVE
                       AIR SEA DIR/SP/G            HT/PER
                 (UTC) (F)     (DEG/KT/KT) (MB)    (FT/S)
S GREEN BAY BUOY 1400   70 71  200/ 10/ 12 1015.3
N MID LAKE BUOY  1350   68 67  190/  6/  8 1016.1R   1/ 4
NORTHPORT PIER   1340   75     200/  2/  5 1015.2S
KEWAUNEE LAKESHO 1342   68     200/  5/  7 1015.2S
SHEBOYGAN LAKESH 1400   68     160/  7/  8 1016.0F
PORT WASHINGTON  1340   72     160/  5/  6 1017.3S
ATWATER BUOY     1309   70 70  150/  8/ 10 1016.7F
MILWAUKEE LAKESH 1350   71     160/  6/  7   N/A
S MID LAKE BUOY  1350   72 71  170/ 10/ 12 1017.0S   1/ 3
KENOSHA   LAKESH 1400   71     180/  7/ 10 1017.3
$$

TC  - TEMPERATURE IN CELSIUS
VSB - VISIBILITY IN STATUTE MILES
WCI - WIND CHILL INDEX
HX  - HEAT INDEX





USA.gov is the U.S. government's official web portal to all federal, state and local government web resources and services.